Location: Shepherdstown, WV
(39.4326°N, 77.8042°W)
Time: 09:28:00
(UTC-04:00)

Tiangong - Pass Details

Date: 30 June 2021
Orbit: 374 x 386 km, 41.5° (Epoch: 25 July)

Event Time Altitude Azimuth Distance (km) Brightness Sun altitude
Exits shadow 02:54:31 17° 87° (E) 1,058 3.6 -23.2°
Drops below altitude 10° 02:55:20 10° 90° (E) 1,382 4.2 -23.2°
Sets 02:57:25 0° 93° (E) 2,235 5.2 -23.0°
